,,Stat6,,Stat2,,Stat8,,Stat9,,Stat10,,Wind1,,Wind1,
time,status,PA1M_AVG,status,PR1M_SUM,status,RH1M_AVG,status,SR1M_AVG,status,TA1M_AVG,status,W1dAve1m,status,W1sAve1m,
2008-03-25, 00:00:00,VALID,917.564,VALID,0,VALID,100,VALID,-0.0339617,VALID,20.6906,VALID,14,VALID,0.858789,
2008-03-25, 00:01:00,VALID,917.525,VALID,0,VALID,100,VALID,0,VALID,20.6776,VALID,354,VALID,1.31795,
2008-03-25, 00:02:00,VALID,917.493,VALID,0,VALID,100,VALID,0.0169808,VALID,20.6452,VALID,20,VALID,1.40461,
2008-03-25, 00:03:00,VALID,917.46,VALID,0,VALID,100,VALID,0,VALID,20.6349,VALID,22,VALID,1.4537,
2008-03-25, 00:04:00,VALID,917.419,VALID,0,VALID,100,VALID,0.0169808,VALID,20.6347,VALID,17,VALID,0.95141,
2008-03-25, 00:05:00,VALID,917.393,VALID,0,VALID,100,VALID,0.0169808,VALID,20.6514,VALID,13,VALID,0.941592,
2008-03-25, 00:06:00,VALID,917.386,VALID,0,VALID,100,VALID,0.0169808,VALID,20.6282,VALID,5,VALID,0.743641,
2008-03-25, 00:07:00,VALID,917.375,VALID,0,VALID,100,VALID,0.0169808,VALID,20.6022,VALID,14,VALID,1.17664,
2008-03-25, 00:08:00,VALID,917.357,VALID,0,VALID,100,VALID,0,VALID,20.6087,VALID,25,VALID,1.71484,
2008-03-25, 00:09:00,VALID,917.364,VALID,0,VALID,100,VALID,0.0169808,VALID,20.6379,VALID,28,VALID,1.60719,
2008-03-25, 00:10:00,VALID,917.365,VALID,0,VALID,100,VALID,0.0169808,VALID,20.6406,VALID,27,VALID,1.16034,
2008-03-25, 00:11:00,VALID,917.371,VALID,0,VALID,100,VALID,0,VALID,20.6379,VALID,25,VALID,0.99782,
2008-03-25, 00:12:00,VALID,917.378,VALID,0,VALID,100,VALID,0.0169808,VALID,20.6279,VALID,15,VALID,0.89881,
2008-03-25, 00:13:00,VALID,917.384,VALID,0,VALID,100,VALID,0.0339617,VALID,20.5917,VALID,4,VALID,0.00550426,
2008-03-25, 00:14:00,VALID,917.394,VALID,0,VALID,100,VALID,-0.0169808,VALID,20.5825,VALID,10,VALID,0,
2008-03-25, 00:15:00,VALID,917.399,VALID,0,VALID,100,VALID,0,VALID,20.586,VALID,21,VALID,0,
2008-03-25, 00:16:00,VALID,917.417,VALID,0,VALID,100,VALID,0,VALID,20.596,VALID,22,VALID,0,
2008-03-25, 00:17:00,VALID,917.437,VALID,0,VALID,100,VALID,0.0169808,VALID,20.6149,VALID,10,VALID,0.273251,
2008-03-25, 00:18:01,VALID,917.446,VALID,0,VALID,100,VALID,0,VALID,20.6447,VALID,34,VALID,1.27557,
2008-03-25, 00:19:00,VALID,917.458,VALID,0,VALID,100,VALID,0,VALID,20.6287,VALID,15,VALID,1.33103,
2008-03-25, 00:20:00,VALID,917.475,VALID,0,VALID,100,VALID,-0.0169808,VALID,20.6157,VALID,23,VALID,1.39135,
2008-03-25, 00:21:01,VALID,917.482,VALID,0,VALID,100,VALID,0,VALID,20.6187,VALID,26,VALID,1.41685,
2008-03-25, 00:22:00,VALID,917.5,VALID,0,VALID,100,VALID,-0.0169808,VALID,20.6157,VALID,24,VALID,1.19055,
2008-03-25, 00:23:00,VALID,917.508,VALID,0,VALID,100,VALID,0.0169808,VALID,20.6119,VALID,23,VALID,1.16521,
2008-03-25, 00:24:01,VALID,917.524,VALID,0,VALID,100,VALID,0.0339617,VALID,20.6149,VALID,24,VALID,0.154916,
2008-03-25, 00:25:00,VALID,917.528,VALID,0,VALID,100,VALID,0,VALID,20.6411,VALID,29,VALID,0,
2008-03-25, 00:26:00,VALID,917.521,VALID,0,VALID,100,VALID,0,VALID,20.6376,VALID,29,VALID,0,
2008-03-25, 00:27:00,VALID,917.526,VALID,0,VALID,100,VALID,0,VALID,20.6646,VALID,29,VALID,0,
2008-03-25, 00:28:01,VALID,917.506,VALID,0,VALID,100,VALID,0,VALID,20.6639,VALID,29,VALID,0,
2008-03-25, 00:29:01,VALID,917.487,VALID,0,VALID,100,VALID,0.0339617,VALID,20.6963,VALID,29,VALID,0,
2008-03-25, 00:30:00,VALID,917.487,VALID,0,VALID,100,VALID,-0.0169808,VALID,20.699,VALID,29,VALID,0,
2008-03-25, 00:31:01,VALID,917.486,VALID,0,VALID,100,VALID,0.0169808,VALID,20.722,VALID,29,VALID,0,
2008-03-25, 00:32:01,VALID,917.472,VALID,0,VALID,100,VALID,0,VALID,20.7288,VALID,68,VALID,0,
2008-03-25, 00:33:00,VALID,917.474,VALID,0,VALID,100,VALID,0,VALID,20.7258,VALID,61,VALID,0,
2008-03-25, 00:34:00,VALID,917.438,VALID,0,VALID,100,VALID,0.0169808,VALID,20.7285,VALID,45,VALID,0,
2008-03-25, 00:35:01,VALID,917.402,VALID,0,VALID,100,VALID,0,VALID,20.738,VALID,30,VALID,0,
2008-03-25, 00:36:00,VALID,917.379,VALID,0,VALID,100,VALID,0,VALID,20.7575,VALID,29,VALID,0,
2008-03-25, 00:37:01,VALID,917.356,VALID,0,VALID,100,VALID,-0.0169808,VALID,20.7545,VALID,29,VALID,0,
2008-03-25, 00:38:00,VALID,917.347,VALID,0,VALID,100,VALID,0.0339617,VALID,20.7377,VALID,29,VALID,0,
2008-03-25, 00:39:00,VALID,917.329,VALID,0,VALID,100,VALID,0.0169808,VALID,20.7183,VALID,29,VALID,0,
2008-03-25, 00:40:00,VALID,917.309,VALID,0,VALID,100,VALID,-0.0169808,VALID,20.7088,VALID,29,VALID,0,
2008-03-25, 00:41:00,VALID,917.3,VALID,0,VALID,100,VALID,0,VALID,20.7026,VALID,28,VALID,0,
2008-03-25, 00:42:01,VALID,917.293,VALID,0,VALID,100,VALID,0,VALID,20.6993,VALID,27,VALID,0,
2008-03-25, 00:43:00,VALID,917.264,VALID,0,VALID,100,VALID,-0.0169808,VALID,20.6928,VALID,26,VALID,0,
2008-03-25, 00:44:01,VALID,917.246,VALID,0,VALID,100,VALID,0.0339617,VALID,20.7118,VALID,26,VALID,0,
2008-03-25, 00:45:00,VALID,917.229,VALID,0,VALID,100,VALID,0,VALID,20.7185,VALID,29,VALID,0,
2008-03-25, 00:46:00,VALID,917.22,VALID,0,VALID,100,VALID,0.0169808,VALID,20.7026,VALID,43,VALID,0,
2008-03-25, 00:47:01,VALID,917.201,VALID,0,VALID,100,VALID,-0.0339617,VALID,20.7096,VALID,42,VALID,0,
2008-03-25, 00:48:00,VALID,917.191,VALID,0,VALID,100,VALID,0,VALID,20.7253,VALID,42,VALID,0,
2008-03-25, 00:49:01,VALID,917.184,VALID,0,VALID,100,VALID,0.0169808,VALID,20.7583,VALID,42,VALID,0,
2008-03-25, 00:50:01,VALID,917.182,VALID,0,VALID,100,VALID,0.0339617,VALID,20.7575,VALID,42,VALID,0,
2008-03-25, 00:51:00,VALID,917.17,VALID,0,VALID,100,VALID,0,VALID,20.7477,VALID,41,VALID,0,
2008-03-25, 00:52:00,VALID,917.14,VALID,0,VALID,100,VALID,0.0339617,VALID,20.7353,VALID,40,VALID,0,
2008-03-25, 00:53:00,VALID,917.109,VALID,0,VALID,100,VALID,-0.0339617,VALID,20.6955,VALID,38,VALID,0,
2008-03-25, 00:54:00,VALID,917.057,VALID,0,VALID,100,VALID,0,VALID,20.7085,VALID,36,VALID,0.471227,
2008-03-25, 00:55:01,VALID,917.019,VALID,0,VALID,100,VALID,0,VALID,20.7418,VALID,34,VALID,0.953125,
2008-03-25, 00:56:00,VALID,916.966,VALID,0,VALID,100,VALID,0,VALID,20.7153,VALID,26,VALID,1.18788,
2008-03-25, 00:57:00,VALID,916.937,VALID,0,VALID,100,VALID,0,VALID,20.7312,VALID,31,VALID,1.25874,
2008-03-25, 00:58:01,VALID,916.923,VALID,0,VALID,100,VALID,0.0169808,VALID,20.7185,VALID,34,VALID,0.976563,
2008-03-25, 00:59:01,VALID,916.905,VALID,0,VALID,100,VALID,0.0169808,VALID,20.718,VALID,48,VALID,0.178571,
2008-03-25, 01:00:01,VALID,916.892,VALID,0,VALID,100,VALID,0.0339617,VALID,20.741,VALID,44,VALID,0.620821,
2008-03-25, 01:01:01,VALID,916.885,VALID,0,VALID,100,VALID,0.0509425,VALID,20.7277,VALID,21,VALID,0.705171,
2008-03-25, 01:02:01,VALID,916.883,VALID,0,VALID,100,VALID,0.0509425,VALID,20.715,VALID,25,VALID,0.754278,
2008-03-25, 01:03:01,VALID,916.874,VALID,0,VALID,100,VALID,0,VALID,20.6926,VALID,26,VALID,0.987537,
2008-03-25, 01:04:01,VALID,916.883,VALID,0,VALID,100,VALID,0.0169808,VALID,20.6539,VALID,30,VALID,0.643864,
2008-03-25, 01:05:01,VALID,916.892,VALID,0,VALID,100,VALID,0.0339617,VALID,20.6241,VALID,37,VALID,0.831597,
2008-03-25, 01:06:00,VALID,916.905,VALID,0,VALID,100,VALID,0.0339617,VALID,20.6536,VALID,34,VALID,0.117969,
2008-03-25, 01:07:01,VALID,916.908,VALID,0,VALID,100,VALID,0,VALID,20.6539,VALID,25,VALID,0.371449,
2008-03-25, 01:08:01,VALID,916.9,VALID,0,VALID,100,VALID,0,VALID,20.6176,VALID,12,VALID,0.598011,
2008-03-25, 01:09:01,VALID,916.882,VALID,0,VALID,100,VALID,0,VALID,20.576,VALID,10,VALID,0.786914,
2008-03-25, 01:10:01,VALID,916.857,VALID,0,VALID,100,VALID,0.0169808,VALID,20.5625,VALID,14,VALID,0.257449,
2008-03-25, 01:11:01,VALID,916.808,VALID,0,VALID,100,VALID,0,VALID,20.5627,VALID,14,VALID,0.0255682,
2008-03-25, 01:12:01,VALID,916.793,VALID,0,VALID,100,VALID,0.0169808,VALID,20.556,VALID,14,VALID,0,
2008-03-25, 01:13:01,VALID,916.775,VALID,0,VALID,100,VALID,0,VALID,20.5368,VALID,14,VALID,0,
2008-03-25, 01:14:00,VALID,916.763,VALID,0,VALID,100,VALID,0.0169808,VALID,20.5403,VALID,14,VALID,0,
2008-03-25, 01:15:00,VALID,916.758,VALID,0,VALID,100,VALID,0,VALID,20.5146,VALID,14,VALID,0,
2008-03-25, 01:16:00,VALID,916.762,VALID,0,VALID,100,VALID,0.0169808,VALID,20.5211,VALID,14,VALID,0,
2008-03-25, 01:17:00,VALID,916.751,VALID,0,VALID,100,VALID,0.0169808,VALID,20.5168,VALID,14,VALID,0,
2008-03-25, 01:18:00,VALID,916.721,VALID,0,VALID,100,VALID,0.0339617,VALID,20.5138,VALID,14,VALID,0,
2008-03-25, 01:19:00,VALID,916.682,VALID,0,VALID,100,VALID,0.0169808,VALID,20.53,VALID,14,VALID,0,
2008-03-25, 01:20:00,VALID,916.644,VALID,0,VALID,100,VALID,0.0339617,VALID,20.5335,VALID,14,VALID,0,
2008-03-25, 01:21:00,VALID,916.608,VALID,0,VALID,100,VALID,0,VALID,20.5268,VALID,14,VALID,0,
2008-03-25, 01:22:00,VALID,916.563,VALID,0,VALID,100,VALID,0.0339617,VALID,20.5043,VALID,14,VALID,0,
2008-03-25, 01:23:00,VALID,916.515,VALID,0,VALID,100,VALID,0,VALID,20.4846,VALID,20,VALID,0,
2008-03-25, 01:24:00,VALID,916.488,VALID,0,VALID,100,VALID,0,VALID,20.4686,VALID,21,VALID,0,
2008-03-25, 01:25:00,VALID,916.461,VALID,0,VALID,100,VALID,0.0169808,VALID,20.4424,VALID,21,VALID,0.0675223,
2008-03-25, 01:26:00,VALID,916.451,VALID,0,VALID,100,VALID,-0.0169808,VALID,20.4489,VALID,27,VALID,0.717262,
2008-03-25, 01:27:00,VALID,916.439,VALID,0,VALID,100,VALID,0,VALID,20.4391,VALID,28,VALID,0.791109,
2008-03-25, 01:28:00,VALID,916.44,VALID,0,VALID,100,VALID,0,VALID,20.4297,VALID,32,VALID,0.789063,
2008-03-25, 01:29:00,VALID,916.439,VALID,0,VALID,100,VALID,0,VALID,20.4197,VALID,33,VALID,0.553544,
2008-03-25, 01:30:00,VALID,916.461,VALID,0,VALID,100,VALID,0,VALID,20.4035,VALID,33,VALID,0.485102,
2008-03-25, 01:31:00,VALID,916.493,VALID,0,VALID,100,VALID,0.0169808,VALID,20.4005,VALID,40,VALID,0.026242,
2008-03-25, 01:32:00,VALID,916.504,VALID,0,VALID,100,VALID,-0.0169808,VALID,20.3678,VALID,49,VALID,0.210029,
2008-03-25, 01:33:00,VALID,916.526,VALID,0,VALID,100,VALID,0.0339617,VALID,20.3353,VALID,55,VALID,0,
2008-03-25, 01:34:00,VALID,916.527,VALID,0,VALID,100,VALID,0,VALID,20.3058,VALID,60,VALID,0,
2008-03-25, 01:35:00,VALID,916.506,VALID,0,VALID,100,VALID,-0.0339617,VALID,20.2904,VALID,60,VALID,0,
2008-03-25, 01:36:00,VALID,916.482,VALID,0,VALID,100,VALID,-0.0339617,VALID,20.2736,VALID,60,VALID,0,
2008-03-25, 01:37:00,VALID,916.462,VALID,0,VALID,100,VALID,0,VALID,20.2739,VALID,26,VALID,0,
2008-03-25, 01:38:00,VALID,916.435,VALID,0,VALID,100,VALID,0.0169808,VALID,20.3066,VALID,17,VALID,0.561592,
2008-03-25, 01:39:00,VALID,916.407,VALID,0,VALID,100,VALID,-0.0169808,VALID,20.3028,VALID,7,VALID,0.301367,
2008-03-25, 01:40:00,VALID,916.389,VALID,0,VALID,100,VALID,0,VALID,20.3134,VALID,355,VALID,0.856957,
2008-03-25, 01:41:00,VALID,916.371,VALID,0,VALID,100,VALID,0,VALID,20.2964,VALID,358,VALID,0.0825893,
2008-03-25, 01:42:00,VALID,916.366,VALID,0,VALID,100,VALID,0.0169808,VALID,20.3256,VALID,8,VALID,0.406622,
2008-03-25, 01:43:00,VALID,916.377,VALID,0,VALID,100,VALID,0,VALID,20.3286,VALID,12,VALID,0.00109012,
2008-03-25, 01:44:00,VALID,916.402,VALID,0,VALID,100,VALID,0.0339617,VALID,20.3353,VALID,10,VALID,0.00372869,
2008-03-25, 01:45:00,VALID,916.395,VALID,0,VALID,100,VALID,0,VALID,20.335,VALID,13,VALID,0.660866,
2008-03-25, 01:46:00,VALID,916.42,VALID,0,VALID,100,VALID,0,VALID,20.3191,VALID,357,VALID,1.45898,
2008-03-25, 01:47:00,VALID,916.419,VALID,0,VALID,100,VALID,-0.0169808,VALID,20.3158,VALID,18,VALID,1.1399,
2008-03-25, 01:48:00,VALID,916.43,VALID,0,VALID,100,VALID,-0.0169808,VALID,20.3258,VALID,6,VALID,1.22366,
2008-03-25, 01:49:00,VALID,916.43,VALID,0,VALID,100,VALID,0,VALID,20.3196,VALID,4,VALID,0.784624,
2008-03-25, 01:50:00,VALID,916.435,VALID,0,VALID,100,VALID,-0.118866,VALID,20.3176,VALID,5,VALID,0.114099,
2008-03-25, 01:51:00,VALID,916.441,VALID,0,VALID,100,VALID,-0.118866,VALID,20.3109,VALID,350,VALID,0,
2008-03-25, 01:52:00,VALID,916.426,VALID,0,VALID,100,VALID,-0.101885,VALID,20.3144,VALID,263,VALID,0,
2008-03-25, 01:53:00,VALID,916.419,VALID,0,VALID,100,VALID,-0.101885,VALID,20.3371,VALID,339,VALID,0,
2008-03-25, 01:54:00,VALID,916.393,VALID,0,VALID,100,VALID,-0.101885,VALID,20.3463,VALID,38,VALID,0.380952,
2008-03-25, 01:55:00,VALID,916.366,VALID,0,VALID,100,VALID,-0.101885,VALID,20.3825,VALID,38,VALID,1.01326,
2008-03-25, 01:56:00,VALID,916.356,VALID,0,VALID,100,VALID,-0.101885,VALID,20.3918,VALID,38,VALID,0.920785,
2008-03-25, 01:57:00,VALID,916.343,VALID,0,VALID,100,VALID,-0.0849042,VALID,20.402,VALID,21,VALID,0.75651,
2008-03-25, 01:58:00,VALID,916.332,VALID,0,VALID,100,VALID,-0.0849042,VALID,20.395,VALID,32,VALID,0.886914,
2008-03-25, 01:59:00,VALID,916.305,VALID,0,VALID,100,VALID,-0.0679233,VALID,20.3885,VALID,27,VALID,1.07965,
2008-03-25, 02:00:00,VALID,916.279,VALID,0,VALID,100,VALID,-0.0679233,VALID,20.385,VALID,26,VALID,0.213914,
2008-03-25, 02:01:00,VALID,916.273,VALID,0,VALID,100,VALID,-0.135847,VALID,20.3433,VALID,29,VALID,0.601563,
2008-03-25, 02:02:00,VALID,916.274,VALID,0,VALID,100,VALID,-0.101885,VALID,20.3301,VALID,34,VALID,0.202035,
2008-03-25, 02:03:00,VALID,916.255,VALID,0,VALID,100,VALID,-0.101885,VALID,20.3109,VALID,6,VALID,0.738567,
2008-03-25, 02:04:00,VALID,916.243,VALID,0,VALID,100,VALID,-0.101885,VALID,20.2849,VALID,360,VALID,0.494336,
2008-03-25, 02:05:00,VALID,916.24,VALID,0,VALID,100,VALID,-0.101885,VALID,20.2782,VALID,2,VALID,0.0443979,
2008-03-25, 02:06:00,VALID,916.231,VALID,0,VALID,100,VALID,-0.0849042,VALID,20.2684,VALID,357,VALID,0.415625,
2008-03-25, 02:07:00,VALID,916.226,VALID,0,VALID,100,VALID,-0.118866,VALID,20.2912,VALID,12,VALID,0.745754,
2008-03-25, 02:08:00,VALID,916.203,VALID,0,VALID,100,VALID,-0.101885,VALID,20.2979,VALID,11,VALID,0.34003,
2008-03-25, 02:09:00,VALID,916.185,VALID,0,VALID,100,VALID,-0.0849042,VALID,20.3111,VALID,11,VALID,0,
2008-03-25, 02:10:00,VALID,916.153,VALID,0,VALID,100,VALID,-0.101885,VALID,20.3046,VALID,337,VALID,0,
2008-03-25, 02:11:00,VALID,916.135,VALID,0,VALID,100,VALID,-0.101885,VALID,20.3176,VALID,332,VALID,0,
2008-03-25, 02:12:00,VALID,916.127,VALID,0,VALID,100,VALID,-0.101885,VALID,20.3336,VALID,332,VALID,0,
2008-03-25, 02:13:00,VALID,916.1,VALID,0,VALID,100,VALID,-0.101885,VALID,20.3463,VALID,332,VALID,0,
2008-03-25, 02:14:00,VALID,916.068,VALID,0,VALID,100,VALID,-0.0849042,VALID,20.3501,VALID,331,VALID,0,
2008-03-25, 02:15:00,VALID,916.041,VALID,0,VALID,100,VALID,-0.101885,VALID,20.3533,VALID,331,VALID,0,
2008-03-25, 02:16:00,VALID,916.005,VALID,0,VALID,100,VALID,-0.101885,VALID,20.3304,VALID,331,VALID,0,
2008-03-25, 02:17:00,VALID,915.976,VALID,0,VALID,100,VALID,-0.101885,VALID,20.3304,VALID,331,VALID,0,
2008-03-25, 02:18:00,VALID,915.956,VALID,0,VALID,100,VALID,-0.0679233,VALID,20.3626,VALID,338,VALID,0,
2008-03-25, 02:19:00,VALID,915.905,VALID,0,VALID,100,VALID,-0.118866,VALID,20.3498,VALID,9,VALID,0.15,
2008-03-25, 02:20:00,VALID,915.871,VALID,0,VALID,100,VALID,-0.0169808,VALID,20.3158,VALID,28,VALID,0.990091,
2008-03-25, 02:21:00,VALID,915.844,VALID,0,VALID,100,VALID,-0.0169808,VALID,20.3223,VALID,40,VALID,1.50725,
2008-03-25, 02:22:00,VALID,915.846,VALID,0,VALID,100,VALID,0,VALID,20.3293,VALID,33,VALID,1.2182,
2008-03-25, 02:23:00,VALID,915.856,VALID,0,VALID,100,VALID,0,VALID,20.3191,VALID,36,VALID,0.875953,
2008-03-25, 02:24:00,VALID,915.872,VALID,0,VALID,100,VALID,0,VALID,20.3128,VALID,46,VALID,0.627046,
2008-03-25, 02:25:00,VALID,915.885,VALID,0,VALID,100,VALID,-0.0339617,VALID,20.2712,VALID,45,VALID,0.261905,
2008-03-25, 02:26:00,VALID,915.889,VALID,0,VALID,100,VALID,0,VALID,20.2544,VALID,39,VALID,0.325267,
2008-03-25, 02:27:00,VALID,915.872,VALID,0,VALID,100,VALID,-0.0169808,VALID,20.2344,VALID,36,VALID,0.783454,
2008-03-25, 02:28:00,VALID,915.834,VALID,0,VALID,100,VALID,-0.0339617,VALID,20.2707,VALID,45,VALID,0.981707,
2008-03-25, 02:29:00,VALID,915.797,VALID,0,VALID,100,VALID,-0.0169808,VALID,20.2707,VALID,32,VALID,1.02214,
2008-03-25, 02:30:00,VALID,915.781,VALID,0,VALID,100,VALID,-0.0169808,VALID,20.2609,VALID,31,VALID,0.762005,
2008-03-25, 02:31:00,VALID,915.776,VALID,0,VALID,100,VALID,-0.0169808,VALID,20.2217,VALID,5,VALID,0.892485,
2008-03-25, 02:32:00,VALID,915.775,VALID,0,VALID,100,VALID,0,VALID,20.189,VALID,357,VALID,0.946007,
2008-03-25, 02:33:00,VALID,915.759,VALID,0,VALID,100,VALID,0,VALID,20.1798,VALID,8,VALID,0.714367,
2008-03-25, 02:34:00,VALID,915.769,VALID,0,VALID,100,VALID,-0.0339617,VALID,20.1701,VALID,17,VALID,0.791016,
2008-03-25, 02:35:00,VALID,915.787,VALID,0,VALID,100,VALID,-0.0339617,VALID,20.1808,VALID,20,VALID,0.686899,
2008-03-25, 02:36:00,VALID,915.813,VALID,0,VALID,100,VALID,-0.0679233,VALID,20.2005,VALID,38,VALID,0.717578,
2008-03-25, 02:37:00,VALID,915.854,VALID,0,VALID,100,VALID,-0.0849042,VALID,20.2068,VALID,41,VALID,0.516797,
2008-03-25, 02:38:00,VALID,915.891,VALID,0,VALID,100,VALID,-0.0509425,VALID,20.2133,VALID,41,VALID,0.0139898,
2008-03-25, 02:39:00,VALID,915.91,VALID,0,VALID,100,VALID,-0.0679233,VALID,20.2265,VALID,41,VALID,0,
2008-03-25, 02:40:00,VALID,915.928,VALID,0,VALID,100,VALID,-0.0339617,VALID,20.1898,VALID,41,VALID,0,
2008-03-25, 02:41:00,VALID,915.948,VALID,0,VALID,100,VALID,-0.0169808,VALID,20.2063,VALID,41,VALID,0,
2008-03-25, 02:42:00,VALID,915.958,VALID,0,VALID,100,VALID,-0.0339617,VALID,20.2163,VALID,41,VALID,0,
2008-03-25, 02:43:00,VALID,915.965,VALID,0,VALID,100,VALID,-0.0169808,VALID,20.2427,VALID,41,VALID,0,
2008-03-25, 02:44:00,VALID,915.959,VALID,0,VALID,100,VALID,-0.0169808,VALID,20.2322,VALID,41,VALID,0,
2008-03-25, 02:45:00,VALID,915.948,VALID,0,VALID,100,VALID,-0.0679233,VALID,20.2195,VALID,41,VALID,0,
2008-03-25, 02:46:00,VALID,915.926,VALID,0,VALID,100,VALID,-0.0339617,VALID,20.213,VALID,41,VALID,0,
2008-03-25, 02:47:00,VALID,915.916,VALID,0,VALID,100,VALID,-0.0339617,VALID,20.236,VALID,41,VALID,0,
2008-03-25, 02:48:00,VALID,915.915,VALID,0,VALID,100,VALID,-0.0339617,VALID,20.2357,VALID,40,VALID,0.194568,
2008-03-25, 02:49:00,VALID,915.926,VALID,0,VALID,100,VALID,-0.0169808,VALID,20.2712,VALID,32,VALID,0.542791,
2008-03-25, 02:50:00,VALID,915.929,VALID,0,VALID,100,VALID,0,VALID,20.2869,VALID,32,VALID,0.00236192,
2008-03-25, 02:51:00,VALID,915.912,VALID,0,VALID,100,VALID,-0.0509425,VALID,20.3174,VALID,37,VALID,0.231357,
2008-03-25, 02:52:00,VALID,915.906,VALID,0,VALID,100,VALID,-0.0169808,VALID,20.2841,VALID,17,VALID,0.289063,
2008-03-25, 02:53:00,VALID,915.911,VALID,0,VALID,100,VALID,-0.0339617,VALID,20.2777,VALID,7,VALID,0,
2008-03-25, 02:54:00,VALID,915.896,VALID,0,VALID,100,VALID,-0.0339617,VALID,20.242,VALID,7,VALID,0,
2008-03-25, 02:55:00,VALID,915.872,VALID,0,VALID,100,VALID,0,VALID,20.2287,VALID,7,VALID,0,
2008-03-25, 02:56:00,VALID,915.855,VALID,0,VALID,100,VALID,-0.0169808,VALID,20.2352,VALID,7,VALID,0,
2008-03-25, 02:57:00,VALID,915.848,VALID,0,VALID,100,VALID,-0.0509425,VALID,20.2479,VALID,7,VALID,0,
2008-03-25, 02:58:00,VALID,915.846,VALID,0,VALID,100,VALID,0,VALID,20.2382,VALID,7,VALID,0,
2008-03-25, 02:59:00,VALID,915.844,VALID,0,VALID,100,VALID,-0.0169808,VALID,20.2347,VALID,7,VALID,0,
2008-03-25, 03:00:00,VALID,915.862,VALID,0,VALID,100,VALID,-0.0509425,VALID,20.206,VALID,7,VALID,0,
2008-03-25, 03:01:00,VALID,915.881,VALID,0,VALID,100,VALID,-0.0169808,VALID,20.2028,VALID,7,VALID,0,
2008-03-25, 03:02:00,VALID,915.916,VALID,0,VALID,100,VALID,-0.0169808,VALID,20.213,VALID,7,VALID,0,
2008-03-25, 03:03:00,VALID,915.918,VALID,0,VALID,100,VALID,-0.0509425,VALID,20.1968,VALID,7,VALID,0,
2008-03-25, 03:04:00,VALID,915.894,VALID,0,VALID,100,VALID,0,VALID,20.187,VALID,7,VALID,0,
2008-03-25, 03:05:00,VALID,915.866,VALID,0,VALID,100,VALID,-0.0169808,VALID,20.1905,VALID,7,VALID,0,
2008-03-25, 03:06:00,VALID,915.847,VALID,0,VALID,100,VALID,-0.0169808,VALID,20.1773,VALID,7,VALID,0,
2008-03-25, 03:07:00,VALID,915.837,VALID,0,VALID,100,VALID,-0.0169808,VALID,20.1676,VALID,7,VALID,0,
2008-03-25, 03:08:00,VALID,915.839,VALID,0,VALID,100,VALID,-0.0169808,VALID,20.1646,VALID,7,VALID,0,
2008-03-25, 03:09:00,VALID,915.826,VALID,0,VALID,100,VALID,-0.0509425,VALID,20.1741,VALID,7,VALID,0,
2008-03-25, 03:10:00,VALID,915.817,VALID,0,VALID,100,VALID,-0.0509425,VALID,20.1713,VALID,7,VALID,0,
2008-03-25, 03:11:00,VALID,915.806,VALID,0,VALID,100,VALID,-0.0679233,VALID,20.1481,VALID,7,VALID,0,
2008-03-25, 03:12:00,VALID,915.771,VALID,0,VALID,100,VALID,-0.0679233,VALID,20.1381,VALID,7,VALID,0,
2008-03-25, 03:13:00,VALID,915.764,VALID,0,VALID,100,VALID,-0.0509425,VALID,20.1678,VALID,7,VALID,0,
2008-03-25, 03:14:00,VALID,915.75,VALID,0,VALID,100,VALID,-0.0509425,VALID,20.1611,VALID,7,VALID,0,
2008-03-25, 03:15:00,VALID,915.734,VALID,0,VALID,100,VALID,-0.0339617,VALID,20.1389,VALID,7,VALID,0,
2008-03-25, 03:16:00,VALID,915.727,VALID,0,VALID,100,VALID,-0.0339617,VALID,20.1549,VALID,7,VALID,0,
2008-03-25, 03:17:00,VALID,915.716,VALID,0,VALID,100,VALID,0,VALID,20.1379,VALID,7,VALID,0,
2008-03-25, 03:18:00,VALID,915.697,VALID,0,VALID,100,VALID,-0.0679233,VALID,20.1311,VALID,7,VALID,0,
2008-03-25, 03:19:00,VALID,915.668,VALID,0,VALID,100,VALID,-0.0509425,VALID,20.1256,VALID,7,VALID,0,
2008-03-25, 03:20:00,VALID,915.649,VALID,0,VALID,100,VALID,0.0169808,VALID,20.0692,VALID,7,VALID,0,
2008-03-25, 03:21:00,VALID,915.631,VALID,0,VALID,100,VALID,0.0339617,VALID,20.0527,VALID,7,VALID,0,
2008-03-25, 03:22:00,VALID,915.585,VALID,0,VALID,100,VALID,0.0509425,VALID,20.0333,VALID,7,VALID,0.360465,
2008-03-25, 03:23:00,VALID,915.568,VALID,0,VALID,100,VALID,0,VALID,20.017,VALID,7,VALID,0.360491,
2008-03-25, 03:24:00,VALID,915.55,VALID,0,VALID,100,VALID,0.0169808,VALID,20.0105,VALID,7,VALID,0.142829,
2008-03-25, 03:25:00,VALID,915.527,VALID,0,VALID,100,VALID,0,VALID,19.9981,VALID,7,VALID,0.0434451,
2008-03-25, 03:26:00,VALID,915.528,VALID,0,VALID,100,VALID,0.0339617,VALID,19.9684,VALID,7,VALID,0.0230655,
2008-03-25, 03:27:00,VALID,915.523,VALID,0,VALID,100,VALID,0.0339617,VALID,19.9584,VALID,7,VALID,0.00253906,
2008-03-25, 03:28:00,VALID,915.508,VALID,0,VALID,100,VALID,0.0169808,VALID,19.9584,VALID,7,VALID,0,
2008-03-25, 03:29:00,VALID,915.5,VALID,0,VALID,100,VALID,-0.0169808,VALID,19.9484,VALID,7,VALID,0,
2008-03-25, 03:30:00,VALID,915.477,VALID,0,VALID,100,VALID,0.0169808,VALID,19.9651,VALID,7,VALID,0,
2008-03-25, 03:31:00,VALID,915.48,VALID,0,VALID,100,VALID,0.0169808,VALID,19.9811,VALID,7,VALID,0,
2008-03-25, 03:32:00,VALID,915.469,VALID,0,VALID,100,VALID,0.0169808,VALID,20.0043,VALID,7,VALID,0,
2008-03-25, 03:33:00,VALID,915.477,VALID,0,VALID,100,VALID,0,VALID,20.0011,VALID,7,VALID,0,
2008-03-25, 03:34:00,VALID,915.487,VALID,0,VALID,100,VALID,0.0339617,VALID,19.9946,VALID,7,VALID,0,
2008-03-25, 03:35:00,VALID,915.487,VALID,0,VALID,100,VALID,0,VALID,19.9913,VALID,7,VALID,0,
2008-03-25, 03:36:00,VALID,915.49,VALID,0,VALID,100,VALID,0,VALID,19.9943,VALID,7,VALID,0,
2008-03-25, 03:37:00,VALID,915.496,VALID,0,VALID,100,VALID,0.0169808,VALID,19.9911,VALID,7,VALID,0,
2008-03-25, 03:38:00,VALID,915.507,VALID,0,VALID,100,VALID,0,VALID,20.0006,VALID,7,VALID,0,
2008-03-25, 03:39:00,VALID,915.517,VALID,0,VALID,100,VALID,0.0509425,VALID,20.0011,VALID,7,VALID,0,
2008-03-25, 03:40:00,VALID,915.522,VALID,0,VALID,100,VALID,0.0339617,VALID,19.9943,VALID,7,VALID,0,
2008-03-25, 03:41:00,VALID,915.512,VALID,0,VALID,100,VALID,0.0339617,VALID,19.9911,VALID,7,VALID,0,
2008-03-25, 03:42:00,VALID,915.505,VALID,0.2,VALID,100,VALID,0.0339617,VALID,19.9846,VALID,7,VALID,0,
2008-03-25, 03:43:00,VALID,915.479,VALID,0,VALID,100,VALID,0.0169808,VALID,19.9743,VALID,7,VALID,0,
2008-03-25, 03:44:00,VALID,915.47,VALID,0,VALID,100,VALID,0.0339617,VALID,19.9776,VALID,7,VALID,0,
2008-03-25, 03:45:00,VALID,915.452,VALID,0,VALID,100,VALID,0.0679233,VALID,19.9711,VALID,7,VALID,0,
2008-03-25, 03:46:00,VALID,915.443,VALID,0,VALID,100,VALID,0.0169808,VALID,19.9546,VALID,7,VALID,0,
2008-03-25, 03:47:00,VALID,915.434,VALID,0,VALID,100,VALID,0.0509425,VALID,19.9516,VALID,7,VALID,0,
2008-03-25, 03:48:00,VALID,915.43,VALID,0,VALID,100,VALID,0.0169808,VALID,19.9292,VALID,7,VALID,0,
2008-03-25, 03:49:00,VALID,915.415,VALID,0,VALID,100,VALID,0.0339617,VALID,19.9132,VALID,7,VALID,0,
2008-03-25, 03:50:00,VALID,915.424,VALID,0,VALID,100,VALID,0.0509425,VALID,19.8768,VALID,7,VALID,0,